GFSGL_700_spd_006.txt.gz
Wind_Speed
14 17 16 15 16 19 14 13 13 13 9 4 1 4 7 11 18 21 25 26 29 26 28 28 21 20 21 17 11 19 16 14 16 18 19 17 25 14 5 9 8 5 6
10 16 16 12 10 11 11 14 16 11 10 10 2 1 4 8 12 18 20 23 28 27 27 26 28 25 25 28 22 21 19 18 17 19 17 18 13 19 6 13 8 6 7
10 12 13 14 11 8 4 6 9 7 7 10 4 1 3 4 4 11 12 20 23 26 27 27 27 22 24 25 24 22 19 19 17 18 18 17 16 15 10 13 12 13 12
9 11 12 12 12 11 8 6 6 8 7 4 3 3 3 3 5 6 7 17 21 21 27 25 23 24 27 26 17 24 15 15 19 17 22 19 22 14 14 16 16 15 14
11 11 11 13 10 8 8 7 9 6 5 5 5 3 2 0 5 4 4 6 5 11 14 16 16 22 21 24 18 17 18 26 24 21 16 14 14 12 15 16 18 17 17
14 17 14 12 13 11 5 5 5 2 1 3 4 3 2 3 3 7 9 11 12 16 15 14 12 12 15 23 26 22 18 18 19 10 9 15 19 19 17 17 20 19 21
16 16 19 15 15 14 8 4 4 2 2 4 5 5 5 6 6 6 8 9 10 12 12 13 16 18 18 20 17 8 9 9 10 11 11 11 12 13 14 16 18 21 24
20 18 18 18 16 15 11 6 7 5 5 6 8 9 8 6 4 2 3 5 5 5 6 6 7 8 7 7 7 9 11 13 15 15 17 18 18 19 20 22 23 25 28
21 19 18 18 14 12 10 10 9 11 11 10 12 12 11 9 8 9 8 8 9 11 10 11 12 11 13 12 13 13 15 17 19 20 22 22 23 24 25 26 26 29 32
24 22 23 16 12 13 15 15 14 13 13 12 13 13 11 13 11 12 10 10 11 10 10 11 14 13 17 15 17 18 22 23 23 26 28 30 31 35 33 30 30 31 34
19 18 20 19 14 15 16 13 13 12 13 14 17 19 20 16 15 15 16 15 14 14 15 16 18 14 19 22 21 22 25 30 31 29 30 30 35 41 41 34 35 39 39
11 15 15 17 11 18 16 17 18 18 17 18 18 18 14 17 17 17 24 27 26 21 17 17 18 21 28 26 29 27 27 34 36 34 38 42 25 28 32 35 32 31 32
8 11 12 17 15 17 18 15 18 14 10 17 13 10 14 16 21 22 19 22 22 16 14 17 21 26 23 23 25 24 30 31 29 28 27 28 26 31 32 35 33 31 29
6 9 11 13 15 18 14 10 13 13 9 11 12 14 13 13 14 18 16 15 13 13 14 15 17 21 22 21 21 24 25 27 29 28 28 29 31 32 33 31 31 29 27
5 9 7 8 8 7 9 8 9 8 10 10 9 9 10 11 15 14 15 13 11 11 14 16 19 21 22 23 24 26 25 25 26 26 27 28 30 29 29 26 25 24 22
3 4 5 3 4 7 9 5 4 5 5 5 6 9 11 11 11 12 12 13 14 15 17 17 19 19 20 22 23 26 25 23 24 25 26 25 25 25 23 23 21 20 19
1 1 4 5 5 4 3 2 3 4 5 6 8 9 11 12 12 13 14 15 16 17 17 16 16 17 18 18 19 19 20 20 20 20 21 22 21 20 19 18 18 17 16
4 5 4 3 3 4 3 3 3 3 6 8 10 11 12 13 14 14 14 14 14 13 14 14 15 16 18 18 19 20 21 22 23 22 22 22 20 17 16 15 14 15 11
7 6 4 3 4 5 7 8 11 12 11 11 12 13 14 14 13 12 11 11 11 12 14 18 16 17 18 19 20 21 21 21 20 19 19 19 18 17 15 14 13 14 12
4 1 2 2 2 5 6 4 11 13 13 18 15 9 9 10 9 7 8 10 12 13 16 17 21 24 23 22 20 20 21 21 22 20 19 18 16 15 15 14 12 11 11
2 1 2 6 4 9 9 12 14 10 6 15 7 8 8 9 9 10 12 15 16 17 18 17 18 22 22 23 21 19 20 19 23 19 17 17 16 15 14 13 12 12 11
5 4 7 6 9 14 15 12 14 12 11 8 1 3 5 7 10 13 15 16 17 18 18 17 18 19 22 23 20 19 17 18 24 17 15 15 14 13 12 11 12 11 9
3 4 9 16 15 14 15 14 11 4 6 6 6 7 9 11 14 15 16 18 18 19 19 19 18 19 18 19 17 17 17 17 16 12 13 14 13 13 11 10 10 11 8
1 12 10 15 21 20 21 12 10 2 6 7 9 10 12 14 16 17 16 16 16 18 20 19 19 17 15 14 15 16 13 14 15 13 13 11 11 11 10 9 8 6 5
3 14 16 12 18 18 17 8 10 14 8 9 10 13 14 15 15 15 15 15 16 17 18 18 16 14 14 13 13 12 14 13 13 11 10 9 8 8 7 5 4 4 4
10 15 13 10 12 15 9 11 15 16 10 12 14 15 15 16 16 15 14 13 13 15 17 15 17 13 13 11 12 11 10 10 11 10 9 8 7 6 5 4 4 4 4

GFSGL_700_spd_009.txt.gz
Wind_Speed
12 15 17 17 14 17 20 19 11 12 12 11 5 1 2 8 14 16 21 20 21 22 23 23 23 21 27 23 27 25 31 21 18 18 20 17 20 16 21 20 11 8 10
8 12 15 15 14 10 7 11 12 13 12 12 6 6 3 4 10 15 16 17 20 22 23 25 22 19 22 22 25 13 21 21 20 18 18 18 18 17 19 16 16 12 8
5 8 10 12 12 12 10 10 12 12 10 11 10 7 4 3 4 8 12 15 15 17 22 25 23 23 23 25 29 22 24 19 19 18 16 21 23 27 22 13 9 9 12
7 9 10 10 10 11 10 8 8 9 9 9 7 5 5 3 1 0 3 9 12 18 20 21 19 22 27 24 23 21 26 20 22 22 20 20 21 21 12 12 15 15 17
7 11 12 11 10 10 10 9 7 5 4 6 6 5 6 4 1 3 2 2 4 8 13 20 18 17 19 15 18 21 23 27 22 21 25 25 22 17 22 17 13 18 17
10 11 11 12 12 11 11 10 8 4 3 4 6 5 4 3 2 3 7 8 9 8 11 14 12 11 12 14 13 19 20 21 23 18 18 24 14 10 12 15 15 16 17
16 17 15 12 11 12 12 10 6 4 4 5 5 5 5 6 6 3 6 6 7 8 7 6 10 11 14 18 21 21 22 20 14 13 7 7 7 9 10 13 16 17 18
19 20 17 15 12 11 9 5 3 4 5 8 9 9 9 9 7 5 5 1 2 4 6 6 7 6 6 6 7 6 7 10 9 8 9 12 14 15 16 17 18 21 24
22 22 23 21 14 8 7 4 5 7 9 9 10 9 9 8 6 6 6 7 8 9 10 11 12 13 12 8 9 11 10 10 12 14 16 19 22 24 25 26 26 28 31
22 21 21 18 15 9 8 9 11 8 11 10 12 12 13 13 12 15 9 8 9 9 11 11 9 12 12 12 11 15 15 17 18 20 25 25 27 29 30 31 31 34 35
18 17 15 15 13 11 12 10 11 11 11 12 14 14 16 19 19 11 11 9 11 11 15 16 16 16 16 14 15 17 23 27 26 25 29 31 34 34 34 36 38 42 30
11 9 10 12 10 13 16 16 11 15 15 15 16 15 12 14 12 14 16 9 12 17 21 22 13 13 14 17 22 25 26 32 31 31 37 43 45 48 45 43 36 28 28
3 5 7 16 14 12 11 11 14 13 11 12 10 7 8 10 9 12 13 10 15 16 13 14 12 16 19 20 22 25 24 28 27 24 24 27 29 28 28 29 29 28 29
5 5 5 12 13 12 15 14 11 9 11 13 10 8 11 9 9 9 11 12 14 13 13 14 14 14 16 15 18 21 22 24 24 25 26 28 29 28 27 27 29 29 26
7 9 9 13 12 13 12 9 10 10 9 9 9 9 8 7 8 11 11 10 10 11 12 13 14 16 18 19 19 18 20 21 22 22 22 23 25 25 24 25 25 24 22
5 6 6 7 8 5 6 8 7 8 8 7 6 7 8 8 8 10 11 12 13 13 14 15 15 16 17 17 18 16 17 17 18 18 18 19 20 20 19 21 21 21 20
1 2 5 6 7 7 6 4 4 4 3 3 4 6 7 9 10 11 13 14 14 13 12 12 13 13 14 14 15 15 15 15 16 17 19 19 18 17 16 18 19 19 18
3 3 3 3 4 4 3 3 3 4 5 6 8 9 9 10 10 10 10 9 10 10 9 9 10 12 13 14 15 16 17 17 17 18 18 17 17 17 17 15 15 16 14
4 4 5 5 5 5 3 4 4 5 6 6 8 7 7 7 8 8 7 9 11 12 13 13 13 14 15 16 18 18 19 18 17 17 16 16 15 14 14 14 14 15 13
6 3 3 5 5 5 9 12 17 17 15 10 8 9 9 7 6 3 4 8 11 13 16 20 21 22 21 19 17 19 21 21 19 16 15 15 14 14 13 12 12 12 13
6 4 1 2 1 5 13 17 21 21 20 18 10 5 5 5 7 9 11 13 14 15 15 16 20 23 24 21 18 17 19 21 20 18 16 14 13 14 13 11 10 9 11
4 3 1 1 7 14 13 15 14 15 18 12 6 3 4 7 10 11 13 14 14 14 14 15 16 18 22 22 19 17 16 17 16 13 13 13 13 13 11 11 10 8 11
3 4 6 10 15 16 14 18 14 11 8 4 3 4 6 8 11 13 14 14 15 16 16 16 16 17 17 17 17 16 14 15 15 12 13 14 13 11 9 10 10 9 8
7 8 11 16 17 17 17 19 11 6 6 4 6 9 11 13 14 16 15 14 15 17 17 14 11 12 12 12 12 13 13 13 13 12 11 11 10 9 9 9 7 5 4
12 12 12 17 18 19 19 18 17 9 8 11 13 14 15 14 15 15 13 12 14 15 14 14 13 11 12 12 12 11 10 11 11 11 10 9 8 7 7 5 4 4 4
14 19 18 18 20 16 14 13 16 16 18 15 15 15 15 16 16 14 12 11 13 15 14 14 14 9 11 12 11 10 10 10 10 10 9 8 7 6 5 3 3 3 3

GFSGL_700_spd_015.txt.gz
Wind_Speed
4 7 9 11 13 14 13 13 12 13 12 6 3 2 6 8 9 11 16 20 20 22 22 23 25 28 24 20 21 22 17 20 21 26 30 27 22 20 18 20 23 22 21
6 7 7 9 11 13 14 13 13 13 14 7 6 4 1 1 8 10 11 14 17 18 20 20 22 18 24 28 20 20 26 20 21 28 24 31 32 25 22 23 22 24 27
5 7 8 9 10 11 12 14 13 12 13 10 9 7 6 3 4 4 7 8 15 12 12 15 17 17 17 17 15 15 17 19 23 20 29 30 27 26 25 24 27 26 23
4 7 10 11 13 12 10 11 11 8 9 11 9 5 6 7 4 4 8 8 10 12 8 7 10 12 15 16 16 15 18 21 24 22 20 21 24 26 27 29 27 28 24
7 9 10 13 14 14 11 8 7 4 4 7 8 8 8 8 5 1 0 3 4 3 8 12 12 14 17 16 17 13 13 12 14 19 18 21 24 28 28 27 21 19 23
8 11 11 12 14 12 11 6 5 3 2 5 5 6 6 7 6 4 2 2 1 2 4 6 9 11 8 13 12 10 13 15 16 17 19 25 28 29 20 27 28 28 23
14 16 17 17 14 12 8 5 4 2 0 3 5 7 7 7 7 6 5 4 4 5 7 8 7 9 10 12 13 14 15 15 16 17 18 20 21 20 14 10 12 14 17
18 20 20 21 17 13 8 4 4 5 3 5 5 5 5 6 7 6 6 7 6 6 5 5 6 8 9 10 11 9 9 9 8 6 4 7 9 9 10 10 13 14 15
23 23 24 20 18 13 8 5 8 7 6 9 8 6 4 4 6 7 9 10 7 7 8 8 9 10 11 13 14 13 13 11 9 9 9 11 11 12 13 14 15 18 19
26 27 26 22 17 13 12 6 9 9 9 11 10 9 9 8 9 10 13 11 8 10 10 10 12 14 13 12 12 15 14 11 12 11 13 15 16 17 23 23 24 25 27
28 29 28 20 16 14 15 12 10 10 10 9 11 12 14 15 13 9 8 9 9 11 14 12 14 16 18 21 20 15 17 16 13 16 20 22 24 26 29 29 29 34 34
30 29 25 17 15 18 15 14 16 10 12 12 12 13 13 13 12 10 8 11 13 13 12 15 19 18 16 16 16 18 18 20 23 22 19 21 25 29 27 26 27 29 30
27 19 12 17 18 15 20 17 12 11 9 14 15 13 10 10 5 9 14 9 8 11 14 16 13 9 12 16 19 21 19 18 19 21 23 24 25 27 27 28 28 29 30
10 4 6 13 8 25 12 10 15 16 14 16 15 14 10 10 11 10 10 12 12 15 12 11 11 12 13 14 17 18 19 20 21 22 23 23 23 23 23 23 24 23 24
8 10 11 11 7 11 12 13 13 14 15 14 12 9 8 11 11 11 14 14 13 12 12 13 14 14 15 16 17 17 18 19 19 18 18 19 20 21 21 20 20 20 20
7 8 8 13 13 13 11 15 13 11 10 9 9 9 10 11 11 12 12 12 13 13 13 13 12 11 11 11 11 11 13 14 16 17 18 19 21 21 22 22 20 19 19
8 9 10 11 13 12 10 10 9 8 7 7 7 8 9 10 11 12 12 13 13 11 9 8 7 7 9 10 12 14 15 16 17 17 18 19 20 20 21 20 18 17 17
8 8 9 8 6 6 6 6 6 7 8 9 10 11 12 12 12 11 10 8 6 5 5 6 7 9 10 11 13 14 14 14 16 17 18 19 19 19 19 19 18 16 16
6 6 5 4 4 3 3 4 6 7 8 10 10 10 9 8 6 5 4 4 4 5 6 7 8 10 12 11 12 14 16 16 16 17 18 19 20 19 18 16 17 15 13
4 4 3 3 3 3 3 4 5 5 5 8 9 8 5 2 3 4 3 5 7 7 7 8 9 9 10 11 12 13 13 14 14 15 16 17 16 14 14 14 13 11 10
4 3 2 2 2 2 5 7 9 11 10 7 5 2 3 3 2 3 5 8 10 9 8 8 8 9 10 11 12 12 13 13 13 14 15 15 14 14 14 12 11 9 8
4 2 2 2 5 8 11 12 13 14 12 9 4 1 3 4 5 7 9 11 11 10 8 9 8 8 8 8 9 11 11 11 11 13 14 13 12 11 11 11 10 9 9
2 0 3 6 8 11 12 13 14 16 15 9 3 2 5 8 8 9 10 12 12 10 9 10 10 9 8 8 8 9 9 10 11 12 12 12 11 10 9 9 8 7 6
6 5 7 9 12 12 14 17 16 15 12 9 6 7 9 9 9 10 11 12 10 9 9 10 11 11 11 10 10 10 11 11 11 11 12 11 10 10 9 8 6 4 3
10 15 16 15 15 18 19 21 22 20 13 11 10 9 10 11 11 11 12 12 12 11 11 11 12 11 12 11 11 11 10 10 10 10 10 10 9 8 7 6 4 3 4
10 14 18 19 19 21 23 26 22 21 21 19 18 19 17 13 13 14 14 14 13 13 13 13 12 11 13 14 13 13 13 11 11 11 10 9 8 8 7 7 5 4 5

GFSGL_700_spd_021.txt.gz
Wind_Speed
7 5 9 11 12 12 14 16 17 16 15 12 10 6 3 2 4 5 7 8 10 12 15 19 22 23 23 24 22 23 25 28 29 28 27 18 19 24 22 24 23 23 22
11 10 10 10 11 12 13 15 15 14 14 12 9 8 6 3 2 2 5 6 10 11 14 15 19 22 23 24 25 27 30 35 32 24 24 26 23 20 23 27 28 29 28
6 7 8 9 12 14 13 13 13 12 11 11 8 9 9 6 5 2 3 3 7 11 13 15 16 19 25 23 21 19 19 24 17 17 18 16 18 19 16 23 31 31 31
6 7 8 9 12 15 16 14 12 9 8 7 9 10 10 7 5 3 0 4 3 3 9 8 6 7 10 9 7 9 9 10 16 11 15 19 19 20 21 22 19 13 14
9 8 8 10 12 16 18 15 10 9 6 5 7 8 10 9 7 4 3 3 4 7 6 10 11 9 9 13 16 15 14 12 15 13 16 16 14 17 20 20 24 27 27
5 6 9 12 14 16 19 17 11 8 5 5 7 8 8 8 8 6 5 4 4 4 3 4 5 6 7 5 7 6 7 9 11 14 15 16 14 18 18 16 17 17 17
9 11 11 12 15 17 19 15 11 7 5 4 6 7 7 6 6 6 6 7 8 6 4 4 2 2 3 4 5 5 5 6 7 8 9 10 11 12 11 12 16 16 12
12 13 13 14 15 17 20 16 11 7 6 6 7 7 7 7 5 5 7 8 10 9 7 5 4 4 4 4 6 7 7 7 8 9 9 8 8 9 8 11 10 10 11
17 18 16 15 15 17 19 18 15 11 9 8 8 8 7 8 9 10 10 11 9 8 6 5 5 5 6 8 9 7 8 9 10 9 9 10 10 11 13 12 14 16 18
19 18 18 15 16 19 21 19 16 11 10 11 10 9 8 10 10 12 13 12 12 8 8 8 9 9 9 11 14 16 13 14 11 13 13 10 13 14 16 17 19 21 22
18 18 17 16 18 21 21 19 13 11 10 12 14 14 13 17 16 14 14 13 10 9 10 12 10 13 15 19 19 14 12 10 15 13 14 19 21 20 21 22 22 23 24
17 16 16 18 19 20 21 15 14 13 14 13 16 11 13 17 18 16 14 12 10 12 12 11 12 15 19 17 11 9 9 13 17 17 16 17 18 19 20 21 22 22 22
18 18 19 19 19 16 17 13 18 19 18 18 17 13 16 18 16 15 14 12 12 18 11 14 19 17 13 13 12 11 13 14 15 17 17 17 16 16 16 17 17 18 19
19 20 18 13 13 15 12 18 20 15 12 14 9 14 19 20 19 13 14 14 15 14 18 20 16 14 15 15 14 14 14 14 13 13 13 14 16 17 18 19 20 19 20
17 16 11 7 8 11 16 13 10 9 13 12 12 16 16 14 13 13 13 14 13 15 17 16 15 15 16 14 12 11 10 11 12 13 15 16 16 17 17 18 18 18 17
14 6 8 9 9 8 9 8 10 13 14 14 14 16 16 13 13 14 13 14 16 15 16 15 15 13 11 10 9 10 11 13 14 14 14 14 15 15 16 16 16 15 15
6 4 5 8 10 12 13 13 13 15 17 16 15 13 13 13 14 15 16 16 16 16 15 12 10 9 9 10 12 13 14 14 13 13 13 12 12 14 15 15 13 12 11
4 6 8 11 12 11 11 11 11 11 12 13 13 13 14 15 16 17 17 17 16 13 10 9 9 11 12 13 14 14 13 12 11 10 9 10 12 13 15 16 14 12 10
5 7 9 10 9 7 6 7 8 9 11 12 13 14 14 15 15 15 14 12 10 8 9 11 12 14 15 15 13 12 11 10 8 8 8 10 11 12 14 16 13 10 10
6 6 5 4 4 4 5 7 8 9 11 12 13 14 14 14 12 11 9 8 8 9 11 13 14 15 15 14 13 11 10 9 8 8 8 10 11 12 12 13 11 10 9
4 4 3 4 4 4 5 5 5 5 6 7 8 7 10 9 9 8 8 9 10 12 12 14 16 15 14 13 12 10 10 9 9 9 9 10 11 11 11 10 10 9 9
5 4 4 3 1 2 3 6 8 9 11 9 7 5 6 8 9 9 11 12 13 13 14 15 15 14 13 13 12 11 11 10 10 9 10 10 11 11 11 11 10 9 9
5 6 6 5 3 3 7 9 10 12 12 12 9 8 7 9 11 13 14 15 16 15 15 16 15 15 14 14 13 14 13 12 12 11 11 11 11 11 11 10 9 8 7
6 6 6 5 8 10 12 13 14 13 13 14 14 13 11 10 12 14 16 17 17 17 18 17 18 17 16 15 15 15 14 14 14 13 13 12 12 12 12 11 9 7 6
8 9 7 11 13 15 16 15 14 16 16 17 17 15 16 16 16 18 18 17 17 18 19 18 18 18 17 17 17 16 16 16 15 16 15 15 14 13 12 12 11 11 9
9 11 13 13 14 16 16 14 15 18 19 20 20 19 19 21 22 23 18 20 19 19 19 19 19 18 18 19 19 19 18 18 18 18 17 17 16 15 14 13 13 13 12